Location: Songkhla
(7.2000°N, 100.6000°E)
Time: 07:35:22
(UTC+07:00)

LAPAN A2 - All Passes

Search period start: 04 December 2021 00:00
Search period end: 14 December 2021 00:00
Orbit: 630 x 649 km, 6.0° (Epoch: 01 December)

Date Brightness Start Highest point End Pass type
(mag) Time Alt. Az. Time Alt. Az. Time Alt. Az.
04 Dec - 00:13:40 10° SW 00:16:55 18° S 00:20:10 10° SE night (unlit)
04 Dec - 01:57:37 10° SW 02:01:26 24° S 02:05:16 10° ESE night (unlit)
04 Dec - 03:41:35 10° WSW 03:45:52 34° S 03:50:11 10° ESE visible
04 Dec - 05:25:41 10° WSW 05:30:16 49° S 05:34:54 10° E visible
04 Dec - 07:09:56 10° WSW 07:14:41 66° S 07:19:26 10° E daylight
04 Dec - 08:54:18 10° W 08:59:05 77° S 09:03:54 10° E daylight
04 Dec - 10:38:43 10° W 10:43:31 75° S 10:48:20 10° E daylight
04 Dec - 12:23:11 10° W 12:27:56 61° S 12:32:40 10° ESE daylight
04 Dec - 14:07:46 10° WSW 14:12:20 44° S 14:16:54 10° ESE daylight
04 Dec - 15:52:33 10° WSW 15:56:46 31° S 16:00:57 10° SE daylight
04 Dec - 17:37:33 10° WSW 17:41:14 22° S 17:44:54 10° SE daylight
04 Dec - 19:22:40 10° SW 19:25:47 17° S 19:28:53 10° SE visible
04 Dec - 21:07:34 10° SW 21:10:23 16° S 21:13:12 10° SE visible
04 Dec - 22:51:59 10° SW 22:54:59 17° S 22:58:00 10° SE night (unlit)
05 Dec - 00:36:00 10° SW 00:39:33 21° S 00:43:05 10° SE night (unlit)
05 Dec - 02:19:57 10° SW 02:24:01 29° S 02:28:06 10° ESE night (unlit)
05 Dec - 04:03:58 10° WSW 04:08:26 41° S 04:12:55 10° ESE visible
05 Dec - 05:48:09 10° WSW 05:52:49 58° S 05:57:31 10° E visible
05 Dec - 07:32:27 10° W 07:37:13 73° S 07:42:01 10° E daylight
05 Dec - 09:16:51 10° W 09:21:39 77° S 09:26:28 10° E daylight
05 Dec - 11:01:17 10° W 11:06:04 69° S 11:10:51 10° E daylight
05 Dec - 12:45:48 10° W 12:50:29 52° S 12:55:10 10° ESE daylight
05 Dec - 14:30:28 10° WSW 14:34:54 37° S 14:39:18 10° ESE daylight
05 Dec - 16:15:22 10° WSW 16:19:21 26° S 16:23:18 10° SE daylight
05 Dec - 18:00:27 10° SW 18:03:52 19° S 18:07:14 10° SE daylight
05 Dec - 19:45:31 10° SW 19:48:26 16° S 19:51:21 10° SE visible
05 Dec - 21:30:11 10° SW 21:33:03 16° S 21:35:55 10° SE visible
05 Dec - 23:14:23 10° SW 23:17:39 18° S 23:20:54 10° SE night (unlit)
06 Dec - 00:58:20 10° SW 01:02:09 24° S 01:05:58 10° ESE night (unlit)
06 Dec - 02:42:18 10° WSW 02:46:35 34° S 02:50:53 10° ESE visible
06 Dec - 04:26:24 10° WSW 04:30:58 50° S 04:35:35 10° E visible
06 Dec - 06:10:39 10° WSW 06:15:22 67° S 06:20:07 10° E daylight
06 Dec - 07:55:01 10° W 07:59:47 77° S 08:04:35 10° E daylight
06 Dec - 09:39:25 10° W 09:44:12 74° S 09:49:00 10° E daylight
06 Dec - 11:23:52 10° W 11:28:37 61° S 11:33:22 10° ESE daylight
06 Dec - 13:08:27 10° WSW 13:13:01 44° S 13:17:36 10° ESE daylight
06 Dec - 14:53:14 10° WSW 14:57:27 30° S 15:01:40 10° SE daylight
06 Dec - 16:38:14 10° WSW 16:41:56 22° S 16:45:37 10° SE daylight
06 Dec - 18:23:21 10° SW 18:26:30 17° S 18:29:37 10° SE visible
06 Dec - 20:08:16 10° SW 20:11:07 16° S 20:13:57 10° SE visible
06 Dec - 21:52:41 10° SW 21:55:43 17° S 21:58:45 10° SE night (unlit)
06 Dec - 23:36:43 10° SW 23:40:16 21° S 23:43:49 10° SE night (unlit)
07 Dec - 01:20:40 10° SW 01:24:44 29° S 01:28:49 10° ESE night (unlit)
07 Dec - 03:04:41 10° WSW 03:09:08 42° S 03:13:36 10° ESE visible
07 Dec - 04:48:52 10° WSW 04:53:32 59° S 04:58:12 10° E visible
07 Dec - 06:33:11 10° W 06:37:55 73° S 06:42:41 10° E daylight
07 Dec - 08:17:33 10° W 08:22:20 77° S 08:27:08 10° E daylight
07 Dec - 10:01:59 10° W 10:06:45 68° S 10:11:33 10° E daylight
07 Dec - 11:46:30 10° W 11:51:10 52° S 11:55:51 10° ESE daylight
07 Dec - 13:31:10 10° WSW 13:35:35 36° S 13:40:00 10° ESE daylight
07 Dec - 15:16:04 10° WSW 15:20:02 26° S 15:24:00 10° SE daylight
07 Dec - 17:01:09 10° SW 17:04:34 19° S 17:07:57 10° SE daylight
07 Dec - 18:46:13 10° SW 18:49:10 16° S 18:52:06 10° SE visible
07 Dec - 20:30:53 10° SW 20:33:47 16° S 20:36:40 10° SE visible
07 Dec - 22:15:04 10° SW 22:18:22 19° S 22:21:39 10° SE night (unlit)
07 Dec - 23:59:02 10° SW 00:02:53 25° S 00:06:42 10° ESE night (unlit)
08 Dec - 01:43:01 10° WSW 01:47:18 35° S 01:51:35 10° ESE night (unlit)
08 Dec - 03:27:07 10° WSW 03:31:41 50° S 03:36:16 10° E visible
08 Dec - 05:11:23 10° W 05:16:04 67° S 05:20:47 10° E visible
08 Dec - 06:55:43 10° W 07:00:28 77° S 07:05:15 10° E daylight
08 Dec - 08:40:07 10° W 08:44:53 74° S 08:49:41 10° E daylight
08 Dec - 10:24:34 10° W 10:29:18 60° S 10:34:03 10° ESE daylight
08 Dec - 12:09:09 10° WSW 12:13:43 43° S 12:18:17 10° ESE daylight
08 Dec - 13:53:56 10° WSW 13:58:09 30° S 14:02:22 10° SE daylight
08 Dec - 15:38:56 10° SW 15:42:39 22° S 15:46:20 10° SE daylight
08 Dec - 17:24:03 10° SW 17:27:13 17° S 17:30:21 10° SE daylight
08 Dec - 19:08:57 10° SW 19:11:50 16° S 19:14:42 10° SE visible
08 Dec - 20:53:21 10° SW 20:56:27 17° S 20:59:31 10° SE visible
08 Dec - 22:37:24 10° SW 22:40:59 21° S 22:44:34 10° SE night (unlit)
09 Dec - 00:21:22 10° SW 00:25:27 29° S 00:29:33 10° ESE night (unlit)
09 Dec - 02:05:25 10° WSW 02:09:51 42° S 02:14:19 10° ESE night (unlit)
09 Dec - 03:49:35 10° WSW 03:54:14 59° S 03:58:53 10° E visible
09 Dec - 05:33:54 10° W 05:38:37 74° S 05:43:22 10° E visible
09 Dec - 07:18:17 10° W 07:23:02 77° S 07:27:48 10° E daylight
09 Dec - 09:02:41 10° W 09:07:26 68° S 09:12:13 10° E daylight
09 Dec - 10:47:11 10° W 10:51:51 51° S 10:56:31 10° ESE daylight
09 Dec - 12:31:51 10° WSW 12:36:16 36° S 12:40:41 10° ESE daylight
09 Dec - 14:16:45 10° WSW 14:20:44 25° S 14:24:41 10° SE daylight
09 Dec - 16:01:51 10° SW 16:05:15 19° S 16:08:41 10° SE daylight
09 Dec - 17:46:53 10° SW 17:49:51 16° S 17:52:50 10° SE daylight
09 Dec - 19:31:33 10° SW 19:34:29 16° S 19:37:26 10° SE visible
09 Dec - 21:15:45 10° SW 21:19:06 19° S 21:22:25 10° SE visible
09 Dec - 22:59:44 10° SW 23:03:36 25° S 23:07:27 10° ESE night (unlit)
10 Dec - 00:43:43 10° WSW 00:48:02 35° S 00:52:19 10° ESE night (unlit)
10 Dec - 02:27:51 10° WSW 02:32:24 51° S 02:36:58 10° E night (unlit)
10 Dec - 04:12:06 10° W 04:16:47 68° S 04:21:29 10° E visible
10 Dec - 05:56:27 10° W 06:01:10 77° S 06:05:55 10° E visible
10 Dec - 07:40:51 10° W 07:45:35 73° S 07:50:20 10° E daylight
10 Dec - 09:25:17 10° W 09:29:59 59° S 09:34:43 10° ESE daylight
10 Dec - 11:09:51 10° WSW 11:14:24 42° S 11:18:57 10° ESE daylight
10 Dec - 12:54:38 10° WSW 12:58:50 30° S 13:03:02 10° SE daylight
10 Dec - 14:39:38 10° SW 14:43:20 22° S 14:47:01 10° SE daylight
10 Dec - 16:24:45 10° SW 16:27:54 17° S 16:31:04 10° SE daylight
10 Dec - 18:09:37 10° SW 18:12:32 16° S 18:15:27 10° SE daylight
10 Dec - 19:54:02 10° SW 19:57:10 17° S 20:00:17 10° SE visible
10 Dec - 21:38:05 10° SW 21:41:43 22° S 21:45:20 10° SE night (unlit)
10 Dec - 23:22:04 10° SW 23:26:11 30° S 23:30:17 10° ESE night (unlit)
11 Dec - 01:06:07 10° WSW 01:10:35 43° S 01:15:02 10° ESE night (unlit)
11 Dec - 02:50:19 10° WSW 02:54:57 60° S 02:59:36 10° E visible
11 Dec - 04:34:38 10° W 04:39:20 74° S 04:44:03 10° E visible
11 Dec - 06:19:01 10° W 06:23:44 77° S 06:28:29 10° E daylight
11 Dec - 08:03:25 10° W 08:08:08 67° S 08:12:53 10° E daylight
11 Dec - 09:47:54 10° W 09:52:32 50° S 09:57:11 10° ESE daylight
11 Dec - 11:32:34 10° WSW 11:36:56 35° S 11:41:21 10° ESE daylight
11 Dec - 13:17:27 10° WSW 13:21:25 25° S 13:25:22 10° SE daylight
11 Dec - 15:02:33 10° SW 15:05:57 19° S 15:09:22 10° SE daylight
11 Dec - 16:47:34 10° SW 16:50:34 16° S 16:53:34 10° SE daylight
11 Dec - 18:32:13 10° SW 18:35:13 16° S 18:38:12 10° SE visible
11 Dec - 20:16:25 10° SW 20:19:48 19° S 20:23:11 10° SE visible
11 Dec - 22:00:24 10° SW 22:04:19 25° S 22:08:12 10° ESE night (unlit)
11 Dec - 23:44:25 10° WSW 23:48:45 36° S 23:53:03 10° ESE night (unlit)
12 Dec - 01:28:33 10° WSW 01:33:07 51° S 01:37:41 10° E night (unlit)
12 Dec - 03:12:50 10° W 03:17:30 68° S 03:22:11 10° E visible
12 Dec - 04:57:11 10° W 05:01:53 77° S 05:06:37 10° E visible
12 Dec - 06:41:35 10° W 06:46:17 73° S 06:51:02 10° E daylight
12 Dec - 08:26:00 10° W 08:30:41 58° S 08:35:23 10° ESE daylight
12 Dec - 10:10:34 10° WSW 10:15:05 42° S 10:19:37 10° ESE daylight
12 Dec - 11:55:21 10° WSW 11:59:31 29° S 12:03:42 10° SE daylight
12 Dec - 13:40:21 10° SW 13:44:01 21° S 13:47:42 10° SE daylight
12 Dec - 15:25:26 10° SW 15:28:36 17° S 15:31:46 10° SE daylight
12 Dec - 17:10:17 10° SW 17:13:14 16° S 17:16:11 10° SE daylight
12 Dec - 18:54:41 10° SW 18:57:52 18° S 19:01:03 10° SE visible
12 Dec - 20:38:45 10° SW 20:42:26 22° S 20:46:06 10° SE visible
12 Dec - 22:22:44 10° SW 22:26:54 30° S 22:31:02 10° ESE night (unlit)
13 Dec - 00:06:49 10° WSW 00:11:18 43° S 00:15:46 10° ESE night (unlit)
13 Dec - 01:51:02 10° WSW 01:55:40 60° S 02:00:18 10° E night (unlit)
13 Dec - 03:35:22 10° W 03:40:03 74° S 03:44:45 10° E visible
13 Dec - 05:19:44 10° W 05:24:27 76° S 05:29:10 10° E visible
13 Dec - 07:04:09 10° W 07:08:50 66° S 07:13:33 10° ESE daylight
13 Dec - 08:48:38 10° W 08:53:14 49° S 08:57:51 10° ESE daylight
13 Dec - 10:33:18 10° WSW 10:37:38 35° S 10:42:00 10° ESE daylight
13 Dec - 12:18:11 10° WSW 12:22:06 25° S 12:26:02 10° SE daylight
13 Dec - 14:03:15 10° SW 14:06:39 19° S 14:10:03 10° SE daylight
13 Dec - 15:48:15 10° SW 15:51:16 16° S 15:54:16 10° SE daylight
13 Dec - 17:32:53 10° SW 17:35:55 17° S 17:38:56 10° SE daylight
13 Dec - 19:17:04 10° SW 19:20:31 19° S 19:23:57 10° SE visible
13 Dec - 21:01:04 10° SW 21:05:02 26° S 21:08:58 10° ESE visible
13 Dec - 22:45:06 10° WSW 22:49:28 36° S 22:53:49 10° ESE night (unlit)
